Location: Coll
(42.4728°N, 0.7714°E)
Time: 06:16:09
(UTC+00:00)

CZ-4B R/B - Pass Details

Date: 23 October 2020
Orbit: 496 x 647 km, 97.8° (Epoch: 23 November)

Event Time Altitude Azimuth Distance (km) Brightness Sun altitude
Rises 04:39:20 0° 14° (NNE) 2,912 7.7 -19.2°
Reaches altitude 10° 04:41:35 10° 17° (NNE) 1,981 6.9 -18.7°
Maximum altitude 04:45:53 72° 101° (E) 628 4.2 -17.9°
Drops below altitude 10° 04:49:57 10° 187° (S) 1,876 6.5 -17.2°
Sets 04:52:03 0° 189° (S) 2,743 7.3 -16.8°
